Regional Weather Roundup
Issued by NWS

Home | Current Version | Previous Version | Graphics & Text | Print | Product List | Glossary On
Versions: 1 2 3 4 5 6 7 8 9 10 11 12 13 14 15 16 17 18 19 20 21 22 23 24 25 26 27 28 29 30 31 32 33 34 35 36 37 38 39 40 41 42 43 44 45 46 47 48 49 50
085
ASUS44 KLIX 252005
RWRLA
LOUISIANA WEATHER ROUNDUP
NATIONAL WEATHER SERVICE NEW ORLEANS LA
300 PM CDT SAT OCT 25 2014

NOTE: "FAIR" INDICATES FEW OR NO CLOUDS BELOW 12,000 FEET WITH NO
      SIGNIFICANT WEATHER AND/OR OBSTRUCTIONS TO VISIBILITY.
      SKY/WX - SKY CONDITION AND SIGNIFICANT WEATHER.
      TMP - AIR TEMPERATURE.    DP   - DEWPOINT TEMPERATURE.
      RH  - RELATIVE HUMIDITY.  PRES - PRESSURE.
      HX  - HEAT INDEX.         WCI  - WIND CHILL INDEX.

*  THESE STATIONS ARE NOT NWS OR FAA STATIONS AND ARE NOT UNDER
   NWS QUALITY CONTROL.

LAZ040-048-061>063-065-066-069-252100-
SOUTHEAST LOUISIANA

CITY           SKY/WX    TMP DP  RH WIND       PRES   REMARKS
N.O. AUDUBON   NOT AVBL
N.O. INTL ARPT SUNNY     78  52  40 NW7       30.09F
N.O. LAKEFRONT SUNNY     74  54  49 W5        30.09F
N.O. DOWNTOWN* FAIR      77  48  36 NW5       30.09F
SLIDELL        SUNNY     80  53  39 VRB5      30.07F
BATON ROUGE    SUNNY     81  52  36 W7        30.09F
BOOTHVILLE     SUNNY     74  53  48 NE7       30.09F
BELLE CHASSE   SUNNY     77  52  41 S5        30.08F
BOGALUSA*        N/A     83  54  37 N8        30.09F
NEW ROADS*     FAIR      80  50  35 NW6       30.10F
GONZALES*      FAIR      80  53  39 CALM      30.09F
HAMMOND*       SUNNY     82  50  32 NW6       30.10F
HOUMA*         SUNNY     81  52  36 N9        30.09F
PORT FOURCHON* CLEAR     75  55  50 E7        30.12F

$$

LAZ041-044-053-054-252100-
SOUTHWEST LOUISIANA

CITY           SKY/WX    TMP DP  RH WIND       PRES   REMARKS
LAKE CHARLES   SUNNY     81  49  32 CALM      30.11F
LAFAYETTE      SUNNY     83  47  28 N7        30.10F
PATTERSON      SUNNY     81  55  41 N6        30.13F
SALT POINT       N/A     73  60  63 VRB5      30.09F
NEW IBERIA     SUNNY     83  50  31 NW7       30.11F
CHENAULT AIRPK NOT AVBL

$$

LAZ027-028-252100-
CENTRAL LOUISIANA

CITY           SKY/WX    TMP DP  RH WIND       PRES   REMARKS
FORT POLK      SUNNY     81  47  30 VRB2      30.10F
ALEXANDRIA INT SUNNY     82  50  32 VRB5      30.09F
ALEXANDRIA     SUNNY     81  55  40 VRB3      30.10F

$$

LAZ001-002-252100-
NORTHWEST LOUISIANA

CITY           SKY/WX    TMP DP  RH WIND       PRES   REMARKS
SHREVEPORT     SUNNY     83  62  49 W7        30.08F
BARKSDALE AFB  SUNNY     84  60  44 S3        30.09F
DTN SHREVEPORT SUNNY     82  60  47 W8        30.09F

$$

LAZ014-016-252100-
NORTHEAST LOUISIANA

CITY           SKY/WX    TMP DP  RH WIND       PRES   REMARKS
MONROE         SUNNY     82  58  43 NW7       30.10F
TALLULAH       SUNNY     81  59  47 VRB6      30.08F

$$




USA.gov is the U.S. government's official web portal to all federal, state and local government web resources and services.